Location: Sungai Liu
(2.3667°N, 113.8667°E)
Time: 14:07:00
(UTC+00:00)

H-2A R/B - Pass Details

Date: 20 May 2022
Orbit: 733 x 836 km, 98.2° (Epoch: 06 July)

Event Time Altitude Azimuth Distance (km) Brightness Sun altitude
Rises 21:42:06 0° 30° (NNE) 3,369 6.2 -8.3°
Reaches altitude 10° 21:44:42 10° 41° (NE) 2,439 5.7 -7.7°
Maximum altitude 21:49:27 31° 102° (ESE) 1,414 4.1 -6.6°
Drops below altitude 10° 21:54:10 10° 163° (SSE) 2,428 4.6 -5.5°
Sets 21:56:44 0° 173° (S) 3,352 5.2 -4.9°
